Lid_Strength_Index
3 5 5 6 10 10 12 12 11 11 8 5 5 6 7 6 8 11 2 0 0 0 -1 -1 -1 -1 -1 -1 -1 -1 -1 -1 -1 -1 -1 -1 -1 -1 -1 -1 -1 -1 -2 -1 -2 -1 -1 -1 -1
4 6 6 8 11 12 13 11 11 11 11 11 7 6 7 8 4 4 3 1 -0 -0 -1 -1 -1 -1 -1 -1 -1 -1 -1 -1 -1 -1 -1 -1 -1 -1 -1 -1 -1 -1 -2 -2 -2 -1 -1 -1 -1
4 5 7 10 12 13 13 11 11 10 9 9 6 5 5 6 3 3 1 0 -0 -0 -1 -1 -1 -1 -1 -1 -1 -1 -1 -1 -1 -1 -1 -1 -1 -1 -1 -1 -1 -1 -2 -1 -1 -1 -1 -2 -1
5 5 7 10 12 12 12 11 11 10 6 6 5 7 4 2 3 2 0 0 0 -0 -1 -1 -1 -1 -1 -1 -1 -1 -1 -1 -1 -1 -1 -1 -1 -1 -1 -1 -1 -1 -2 -2 -1 -2 -1 -2 -2
7 7 9 11 11 10 9 9 9 7 9 5 5 7 6 3 1 1 1 0 1 -0 -1 -1 -1 -1 -1 -1 -1 -1 -1 -1 -1 -1 -1 -1 -1 -1 -1 -1 -1 -1 -1 -2 -1 -2 -2 -2 -2
8 8 11 12 12 11 9 8 8 9 9 8 5 6 5 4 2 1 0 0 -0 0 -1 -1 -1 -1 -1 -1 -1 -1 -1 -1 -1 -1 -1 -1 -1 -1 -1 -1 -1 -1 -1 -1 -1 -2 -2 -2 -2
9 10 12 12 12 11 10 8 8 9 8 9 8 7 6 5 1 1 1 0 0 -0 -0 -1 -1 -1 -1 -1 -1 -1 -1 -1 -1 -1 -1 -1 -1 -1 -1 -1 -1 -1 -1 -1 -2 -2 -2 -2 -2
9 9 12 11 11 11 8 8 8 8 8 7 7 8 8 5 1 1 1 0 0 0 -0 -0 -1 -1 -1 -1 -1 -1 -1 -1 -1 -1 -1 -1 -1 -1 -1 -1 -1 -1 -1 -1 -1 -2 -2 -2 -2
9 10 11 11 10 9 7 8 6 6 7 6 6 6 5 4 3 1 1 2 1 1 0 -0 -0 -0 -1 -1 -1 -1 -1 -1 -1 -1 -1 -1 -1 -1 -1 -1 -1 -1 -1 -1 -1 -1 -2 -2 -2
8 9 10 9 8 8 8 8 7 7 7 7 6 5 4 4 3 3 2 2 2 1 1 0 -0 -0 -0 -0 -1 -1 -1 -1 -1 -1 -1 -1 -1 -1 -1 -1 -1 -1 -1 -1 -1 -1 -1 -1 -2
8 9 8 8 7 7 7 8 7 8 8 7 7 6 5 4 4 4 4 3 3 1 1 0 -0 -0 -0 -0 -1 -1 -1 -1 -1 -1 -1 -1 -1 -1 -1 -1 -1 -1 -1 -1 -1 -1 -1 -1 -1
8 8 7 7 7 7 7 7 7 7 7 6 6 5 5 4 4 4 4 4 4 3 2 -0 -0 -0 -0 -0 -0 -1 -0 -1 -0 -1 -1 -1 -1 -1 -1 -1 -1 -1 -1 -1 -1 -1 -1 -1 -1
7 7 7 7 7 7 7 7 7 7 6 5 5 5 5 4 4 4 4 3 3 3 2 2 -1 -0 -0 0 -0 -0 -0 -0 -1 -1 -1 -1 -0 -0 -1 -1 -1 -1 -1 -1 -1 -1 -1 -1 -1
7 7 7 7 7 7 8 8 7 6 6 5 4 4 4 4 4 3 3 3 2 2 2 1 1 -1 -0 0 -0 -0 -0 -1 -1 -1 -1 -1 -1 -1 -0 -0 -0 -1 -1 -1 -1 -1 -0 -0 -1
7 8 7 7 7 8 8 8 7 6 6 5 5 4 4 4 3 3 2 1 1 1 0 0 0 -1 -0 0 -0 -0 -0 -0 -0 -0 -1 -1 -1 -0 -0 -0 -0 -0 -1 -1 -1 -1 -1 -0 -1
9 8 10 7 7 8 7 9 6 6 6 5 5 5 5 3 2 2 1 1 1 1 0 -0 -0 0 -0 -0 -0 -0 -0 -0 -0 -1 -1 -1 -1 -1 0 -0 -0 -1 -1 -1 -0 -0 0 0 0
9 11 10 9 7 8 8 9 6 5 5 5 4 5 4 3 2 2 1 1 1 0 1 1 -0 -0 -1 -0 -0 -0 -0 -0 -0 -1 -0 -1 -1 -1 0 -0 -0 -1 -0 -0 -0 -0 -0 0 0
11 11 10 10 8 8 8 8 6 5 5 5 4 5 4 4 3 2 1 1 1 0 0 0 0 -0 -1 -0 -0 0 0 0 -0 -0 -0 -0 -1 -0 0 0 -0 -1 -0 0 -0 0 0 0 1
9 10 10 9 8 9 9 9 7 6 6 6 5 5 5 4 3 2 1 2 1 1 1 0 1 0 0 0 1 1 2 1 1 -0 -0 -1 -1 -1 -0 0 0 -0 0 0 -0 0 1 1 0
9 10 9 9 8 8 8 9 7 6 6 6 5 5 5 4 3 2 2 2 2 2 2 1 0 0 0 0 0 1 1 1 0 -0 -0 -0 -0 -0 -0 -0 0 0 1 0 0 0 1 1 0
9 10 10 10 8 8 9 10 9 7 6 5 5 4 4 4 4 3 2 2 2 3 3 2 1 0 -0 0 -0 0 0 1 1 1 1 0 -0 -0 -0 -0 -0 -0 0 1 1 0 1 2 1
10 9 9 9 10 12 9 14 10 8 7 6 6 5 5 4 3 3 2 2 3 3 3 3 2 2 1 -0 0 1 2 2 1 1 0 0 -0 -0 -0 -0 -0 -0 0 1 1 1 1 1 2
9 8 9 9 10 12 11 12 10 8 8 7 6 5 5 4 4 3 3 3 3 3 3 3 2 2 2 1 -0 1 1 1 1 1 1 0 -0 -0 -0 -0 -0 0 0 -0 0 1 1 1 1
8 8 8 11 11 14 12 13 11 9 8 7 6 5 5 4 3 3 2 2 2 2 3 3 3 3 2 1 1 0 1 1 2 1 2 1 1 0 -0 -0 -0 -0 0 0 0 1 1 1 1
8 10 15 15 15 15 11 13 10 8 7 6 6 5 5 4 3 3 3 3 3 3 3 3 3 3 2 2 2 1 1 1 1 1 2 1 1 1 1 0 0 0 -0 0 -0 0 0 1 1
10 10 14 19 16 14 10 14 10 7 6 5 5 5 4 4 3 3 3 2 3 3 3 4 4 4 3 3 2 1 0 1 1 1 1 1 1 1 -0 0 -0 -0 -0 -0 0 0 1 0 1
10 12 9 15 13 16 13 11 8 7 6 6 6 5 5 4 3 3 3 2 3 3 4 4 4 4 3 3 2 1 0 1 1 1 0 1 0 0 0 -0 0 0 0 0 0 1 1 1 2
8 8 14 13 20 19 13 13 12 9 8 6 6 5 5 4 4 3 3 2 3 2 3 4 3 4 3 3 2 1 1 0 0 1 1 1 0 0 0 0 0 0 0 0 1 1 1 1 1
10 11 11 12 14 18 17 13 8 8 7 7 6 5 5 4 4 3 3 3 3 3 3 3 4 4 3 3 3 2 1 1 1 1 1 0 0 0 0 0 0 1 1 0 1 1 1 2 2
8 10 10 16 15 15 15 15 6 6 6 6 6 5 5 4 4 3 3 4 4 4 4 4 3 4 3 3 3 2 1 1 1 1 1 0 1 0 0 0 0 1 1 0 1 2 2 4 3